| time (UTC) | temp C | wind direction | speed KPH | gust KPH | rain 1hr cm | rain 24hr cm | rain mn cm | humidity % | barometer mb |
| 20260504204752 | 25 | 175 | 4.8 | 11.3 | 0.00 | 0.00 | 0.00 | 39 | 1011.2 |
| 20260504204250 | 25 | 345 | 6.4 | 8.0 | 0.00 | 0.00 | 0.00 | 37 | 1011.2 |
| 20260504203749 | 25 | 310 | 4.8 | 9.7 | 0.00 | 0.00 | 0.00 | 36 | 1011.2 |
| 20260504203246 | 25 | 281 | 9.7 | 9.7 | 0.00 | 0.00 | 0.00 | 37 | 1011.3 |
| 20260504202741 | 25 | 164 | 4.8 | 6.4 | 0.00 | 0.00 | 0.00 | 41 | 1011.4 |
| 20260504202239 | 25 | 337 | 3.2 | 6.4 | 0.00 | 0.00 | 0.00 | 36 | 1011.6 |
| 20260504201736 | 25 | 243 | 3.2 | 9.7 | 0.00 | 0.00 | 0.00 | 36 | 1011.2 |
| 20260504201233 | 25 | 70 | 0.0 | 8.0 | 0.00 | 0.00 | 0.00 | 35 | 1010.9 |
| 20260504200731 | 26 | 41 | 3.2 | 6.4 | 0.00 | 0.00 | 0.00 | 35 | 1011.2 |
| 20260504200226 | 26 | 138 | 9.7 | 9.7 | 0.00 | 0.00 | 0.00 | 39 | 1011.5 |
| 20260504195723 | 25 | 131 | 4.8 | 6.4 | 0.00 | 0.00 | 0.00 | 37 | 1011.1 |
| 20260504195219 | 26 | 99 | 9.7 | 9.7 | 0.00 | 0.00 | 0.00 | 36 | 1011.4 |
| 20260504194716 | 26 | 274 | 0.0 | 4.8 | 0.00 | 0.00 | 0.00 | 36 | 1011.4 |
| 20260504194212 | 26 | 309 | 3.2 | 6.4 | 0.00 | 0.00 | 0.00 | 35 | 1011.5 |
| 20260504193709 | 25 | 190 | 4.8 | 8.0 | 0.00 | 0.00 | 0.00 | 37 | 1011.7 |
| 20260504193206 | 25 | 148 | 0.0 | 6.4 | 0.00 | 0.00 | 0.00 | 36 | 1011.5 |
| 20260504192704 | 25 | 10 | 4.8 | 8.0 | 0.00 | 0.00 | 0.00 | 34 | 1011.6 |
| 20260504192202 | 25 | 236 | 6.4 | 17.7 | 0.00 | 0.00 | 0.00 | 34 | 1011.9 |
| 20260504191701 | 25 | 270 | 3.2 | 11.3 | 0.00 | 0.00 | 0.00 | 35 | 1011.6 |
| 20260504191156 | 25 | 164 | 0.0 | 9.7 | 0.00 | 0.00 | 0.00 | 34 | 1011.7 |
| 20260504190652 | 25 | 192 | 3.2 | 8.0 | 0.00 | 0.00 | 0.00 | 34 | 1012.0 |
| 20260504190149 | 25 | 340 | 1.6 | 14.5 | 0.00 | 0.00 | 0.00 | 34 | 1011.7 |
| 20260504185645 | 25 | 190 | 0.0 | 9.7 | 0.00 | 0.00 | 0.00 | 35 | 1012.0 |
| 20260504185142 | 25 | 118 | 4.8 | 8.0 | 0.00 | 0.00 | 0.00 | 34 | 1012.0 |
| 20260504184638 | 25 | 285 | 0.0 | 11.3 | 0.00 | 0.00 | 0.00 | 33 | 1012.2 |
| 20260504184133 | 26 | 77 | 0.0 | 6.4 | 0.00 | 0.00 | 0.00 | 33 | 1012.4 |
| 20260504183630 | 25 | 125 | 3.2 | 8.0 | 0.00 | 0.00 | 0.00 | 34 | 1012.4 |
| 20260504183128 | 25 | 180 | 0.0 | 6.4 | 0.00 | 0.00 | 0.00 | 33 | 1012.5 |
| 20260504182625 | 25 | 355 | 3.2 | 9.7 | 0.00 | 0.00 | 0.00 | 34 | 1012.6 |
| 20260504182123 | 25 | 209 | 1.6 | 9.7 | 0.00 | 0.00 | 0.00 | 33 | 1012.8 |
| 20260504181620 | 25 | 15 | 3.2 | 11.3 | 0.00 | 0.00 | 0.00 | 33 | 1012.9 |
| 20260504181117 | 25 | 358 | 6.4 | 8.0 | 0.00 | 0.00 | 0.00 | 34 | 1012.6 |
| 20260504180617 | 25 | 152 | 3.2 | 6.4 | 0.00 | 0.00 | 0.00 | 36 | 1012.6 |
| 20260504180115 | 25 | 149 | 6.4 | 9.7 | 0.00 | 0.00 | 0.00 | 36 | 1012.9 |
| 20260504175612 | 25 | 186 | 0.0 | 8.0 | 0.00 | 0.00 | 0.00 | 38 | 1013.2 |
| 20260504175109 | 25 | 166 | 4.8 | 11.3 | 0.00 | 0.00 | 0.00 | 33 | 1013.1 |
| 20260504174607 | 26 | 0 | 1.6 | 8.0 | 0.00 | 0.00 | 0.00 | 34 | 1013.0 |
| 20260504174103 | 25 | 261 | 0.0 | 8.0 | 0.00 | 0.00 | 0.00 | 34 | 1013.1 |
| 20260504173600 | 24 | 157 | 0.0 | 8.0 | 0.00 | 0.00 | 0.00 | 39 | 1013.1 |
| 20260504173058 | 24 | 157 | 4.8 | 6.4 | 0.00 | 0.00 | 0.00 | 41 | 1013.1 |
| 20260504172554 | 24 | 158 | 4.8 | 6.4 | 0.00 | 0.00 | 0.00 | 38 | 1013.5 |
| 20260504172050 | 24 | 307 | 0.0 | 4.8 | 0.00 | 0.00 | 0.00 | 35 | 1013.3 |
| 20260504171547 | 25 | 166 | 0.0 | 11.3 | 0.00 | 0.00 | 0.00 | 38 | 1013.4 |
| 20260504171044 | 24 | 120 | 3.2 | 9.7 | 0.00 | 0.00 | 0.00 | 38 | 1013.5 |
| 20260504170539 | 24 | 5 | 0.0 | 11.3 | 0.00 | 0.00 | 0.00 | 34 | 1013.7 |
| 20260504150924 | 22 | 231 | 3.2 | 4.8 | 0.00 | 0.00 | 0.00 | 40 | 1015.0 |
| 20260504150420 | 22 | 154 | 4.8 | 4.8 | 0.00 | 0.00 | 0.00 | 44 | 1014.9 |
| 20260504140847 | 20 | 172 | 0.0 | 9.7 | 0.00 | 0.00 | 0.00 | 46 | 1015.2 |
| 20260504140343 | 20 | 7 | 0.0 | 4.8 | 0.00 | 0.00 | 0.00 | 43 | 1015.4 |
| 20260504130812 | 16 | 180 | 1.6 | 3.2 | 0.00 | 0.00 | 0.00 | 55 | 1015.6 |
| 20260504130308 | 16 | 263 | 0.0 | 8.0 | 0.00 | 0.00 | 0.00 | 53 | 1015.9 |
| 20260504120231 | 13 | 5 | 1.6 | 4.8 | 0.00 | 0.00 | 0.00 | 63 | 1016.0 |
| 20260504110659 | 9 | 66 | 0.0 | 1.6 | 0.00 | 0.00 | 0.00 | 85 | 1016.4 |
| 20260504110155 | 9 | 120 | 0.0 | 3.2 | 0.00 | 0.00 | 0.00 | 83 | 1016.4 |
| 20260504100119 | 10 | 105 | 1.6 | 3.2 | 0.00 | 0.00 | 0.00 | 78 | 1016.2 |
| 20260504081512 | 10 | 99 | 0.0 | 1.6 | 0.00 | 0.00 | 0.00 | 76 | 1016.5 |
| 20260504081008 | 10 | 111 | 0.0 | 1.6 | 0.00 | 0.00 | 0.00 | 75 | 1016.5 |
| 20260504080504 | 10 | 106 | 0.0 | 1.6 | 0.00 | 0.00 | 0.00 | 74 | 1016.4 |
| 20260504050317 | 7 | 126 | 0.0 | 3.2 | 0.00 | 0.00 | 0.00 | 85 | 1016.6 |
| 20260504045814 | 7 | 123 | 1.6 | 3.2 | 0.00 | 0.00 | 0.00 | 85 | 1016.5 |
| 20260504045309 | 7 | 120 | 0.0 | 3.2 | 0.00 | 0.00 | 0.00 | 84 | 1016.6 |
| 20260504044806 | 7 | 126 | 0.0 | 3.2 | 0.00 | 0.00 | 0.00 | 85 | 1016.8 |
| 20260504044304 | 7 | 120 | 1.6 | 1.6 | 0.00 | 0.00 | 0.00 | 85 | 1016.6 |
| 20260504043801 | 7 | 120 | 1.6 | 3.2 | 0.00 | 0.00 | 0.00 | 87 | 1016.7 |
| 20260504043258 | 7 | 117 | 1.6 | 3.2 | 0.00 | 0.00 | 0.00 | 88 | 1016.7 |
| 20260504042755 | 6 | 107 | 3.2 | 3.2 | 0.00 | 0.00 | 0.00 | 89 | 1016.6 |
| 20260504042251 | 6 | 98 | 0.0 | 1.6 | 0.00 | 0.00 | 0.00 | 91 | 1016.4 |
| 20260504041748 | 6 | 117 | 0.0 | 3.2 | 0.00 | 0.00 | 0.00 | 92 | 1016.7 |
| 20260504041244 | 6 | 120 | 1.6 | 3.2 | 0.00 | 0.00 | 0.00 | 91 | 1016.6 |
| 20260504040740 | 6 | 96 | 0.0 | 1.6 | 0.00 | 0.00 | 0.00 | 91 | 1016.6 |
| 20260504040238 | 6 | 128 | 3.2 | 3.2 | 0.00 | 0.00 | 0.00 | 92 | 1016.6 |
| 20260504035733 | 6 | 126 | 1.6 | 3.2 | 0.00 | 0.00 | 0.00 | 93 | 1016.6 |
| 20260504035231 | 6 | 127 | 3.2 | 3.2 | 0.00 | 0.00 | 0.00 | 92 | 1016.5 |
| 20260504034728 | 6 | 107 | 3.2 | 3.2 | 0.00 | 0.00 | 0.00 | 92 | 1016.5 |
| 20260504034225 | 6 | 120 | 1.6 | 3.2 | 0.00 | 0.00 | 0.00 | 91 | 1016.6 |
| 20260504033723 | 5 | 114 | 1.6 | 3.2 | 0.00 | 0.00 | 0.00 | 91 | 1016.5 |
| 20260504033220 | 5 | 98 | 1.6 | 1.6 | 0.00 | 0.00 | 0.00 | 90 | 1016.6 |
| 20260504032717 | 5 | 96 | 1.6 | 3.2 | 0.00 | 0.00 | 0.00 | 90 | 1016.8 |
| 20260504032214 | 6 | 117 | 1.6 | 3.2 | 0.00 | 0.00 | 0.00 | 90 | 1016.6 |
| 20260504031711 | 6 | 131 | 1.6 | 3.2 | 0.00 | 0.00 | 0.00 | 88 | 1016.4 |
| 20260504031208 | 6 | 135 | 3.2 | 3.2 | 0.00 | 0.00 | 0.00 | 87 | 1016.7 |
| 20260504030704 | 6 | 117 | 1.6 | 3.2 | 0.00 | 0.00 | 0.00 | 87 | 1016.4 |
| 20260504030202 | 6 | 111 | 1.6 | 3.2 | 0.00 | 0.00 | 0.00 | 87 | 1016.4 |
| 20260504025658 | 6 | 106 | 0.0 | 3.2 | 0.00 | 0.00 | 0.00 | 87 | 1016.4 |
| 20260504025155 | 6 | 135 | 3.2 | 3.2 | 0.00 | 0.00 | 0.00 | 88 | 1016.3 |
| 20260504024652 | 6 | 123 | 1.6 | 3.2 | 0.00 | 0.00 | 0.00 | 88 | 1016.2 |
| 20260504024148 | 6 | 142 | 3.2 | 3.2 | 0.00 | 0.00 | 0.00 | 87 | 1016.5 |
| 20260504023645 | 6 | 114 | 1.6 | 3.2 | 0.00 | 0.00 | 0.00 | 88 | 1016.5 |
| 20260504023141 | 6 | 131 | 1.6 | 3.2 | 0.00 | 0.00 | 0.00 | 88 | 1016.4 |
| 20260504022637 | 6 | 131 | 1.6 | 3.2 | 0.00 | 0.00 | 0.00 | 85 | 1016.4 |
| 20260504022133 | 6 | 117 | 1.6 | 3.2 | 0.00 | 0.00 | 0.00 | 85 | 1016.4 |
| 20260504021632 | 6 | 131 | 1.6 | 3.2 | 0.00 | 0.00 | 0.00 | 85 | 1016.2 |
| 20260504021128 | 7 | 120 | 0.0 | 3.2 | 0.00 | 0.00 | 0.00 | 83 | 1016.4 |
| 20260504020625 | 7 | 111 | 0.0 | 3.2 | 0.00 | 0.00 | 0.00 | 85 | 1016.5 |
| 20260504020121 | 7 | 135 | 3.2 | 3.2 | 0.00 | 0.00 | 0.00 | 83 | 1016.3 |
| 20260504015618 | 7 | 120 | 1.6 | 3.2 | 0.00 | 0.00 | 0.00 | 81 | 1016.2 |
| 20260504015114 | 7 | 135 | 3.2 | 3.2 | 0.00 | 0.00 | 0.00 | 79 | 1016.0 |
| 20260504014610 | 8 | 114 | 1.6 | 3.2 | 0.00 | 0.00 | 0.00 | 78 | 1016.1 |
| 20260504014107 | 8 | 90 | 1.6 | 1.6 | 0.00 | 0.00 | 0.00 | 75 | 1016.2 |
| 20260504013605 | 8 | 114 | 1.6 | 3.2 | 0.00 | 0.00 | 0.00 | 76 | 1016.1 |
| 20260504013102 | 8 | 127 | 0.0 | 3.2 | 0.00 | 0.00 | 0.00 | 77 | 1015.9 |
| 20260504012559 | 8 | 157 | 1.6 | 1.6 | 0.00 | 0.00 | 0.00 | 74 | 1016.3 |
| 20260504012057 | 8 | 139 | 3.2 | 3.2 | 0.00 | 0.00 | 0.00 | 74 | 1016.0 |
| 20260504011553 | 8 | 140 | 1.6 | 3.2 | 0.00 | 0.00 | 0.00 | 73 | 1016.1 |
| 20260504011049 | 8 | 114 | 1.6 | 1.6 | 0.00 | 0.00 | 0.00 | 73 | 1015.9 |
| 20260504010545 | 8 | 117 | 0.0 | 3.2 | 0.00 | 0.00 | 0.00 | 73 | 1015.7 |
| 20260504010041 | 9 | 154 | 1.6 | 3.2 | 0.00 | 0.00 | 0.00 | 75 | 1015.8 |
| 20260504005538 | 10 | 114 | 1.6 | 3.2 | 0.00 | 0.00 | 0.00 | 73 | 1015.9 |
| 20260504005036 | 10 | 126 | 0.0 | 1.6 | 0.00 | 0.00 | 0.00 | 68 | 1015.8 |
| 20260504004533 | 10 | 114 | 0.0 | 1.6 | 0.00 | 0.00 | 0.00 | 67 | 1015.8 |
| 20260504004030 | 10 | 120 | 0.0 | 1.6 | 0.00 | 0.00 | 0.00 | 64 | 1015.7 |
| 20260504003526 | 11 | 106 | 0.0 | 1.6 | 0.00 | 0.00 | 0.00 | 68 | 1015.6 |
| 20260504003023 | 11 | 106 | 0.0 | 1.6 | 0.00 | 0.00 | 0.00 | 64 | 1015.6 |
| 20260504002520 | 11 | 106 | 0.0 | 1.6 | 0.00 | 0.00 | 0.00 | 64 | 1015.6 |
| 20260504002018 | 11 | 106 | 1.6 | 1.6 | 0.00 | 0.00 | 0.00 | 64 | 1015.4 |
| 20260504001515 | 11 | 114 | 0.0 | 1.6 | 0.00 | 0.00 | 0.00 | 63 | 1015.5 |
| 20260504001011 | 11 | 123 | 0.0 | 3.2 | 0.00 | 0.00 | 0.00 | 62 | 1015.5 |
| 20260504000508 | 12 | 147 | 3.2 | 3.2 | 0.00 | 0.00 | 0.00 | 61 | 1015.5 |
| 20260504000006 | 12 | 151 | 3.2 | 3.2 | 0.00 | 0.00 | 0.00 | 63 | 1015.6 |
| 20260503235504 | 13 | 140 | 0.0 | 3.2 | 0.00 | 0.00 | 0.00 | 60 | 1015.3 |
| 20260503235000 | 13 | 131 | 0.0 | 3.2 | 0.00 | 0.00 | 0.00 | 55 | 1015.3 |
| 20260503234458 | 13 | 147 | 3.2 | 3.2 | 0.00 | 0.00 | 0.00 | 58 | 1015.3 |
| 20260503233956 | 14 | 106 | 0.0 | 0.0 | 0.00 | 0.00 | 0.00 | 51 | 1015.1 |
| 20260503233452 | 15 | 99 | 0.0 | 1.6 | 0.00 | 0.00 | 0.00 | 49 | 1015.3 |
| 20260503232948 | 15 | 99 | 0.0 | 0.0 | 0.00 | 0.00 | 0.00 | 48 | 1015.1 |
| 20260503232446 | 15 | 352 | 0.0 | 1.6 | 0.00 | 0.00 | 0.00 | 44 | 1015.1 |
| 20260503231943 | 15 | 0 | 0.0 | 0.0 | 0.00 | 0.00 | 0.00 | 45 | 1015.2 |
| 20260503231441 | 15 | 0 | 0.0 | 3.2 | 0.00 | 0.00 | 0.00 | 43 | 1015.2 |
| 20260503230937 | 16 | 264 | 0.0 | 3.2 | 0.00 | 0.00 | 0.00 | 43 | 1015.1 |
| 20260503230434 | 16 | 261 | 0.0 | 3.2 | 0.00 | 0.00 | 0.00 | 41 | 1015.1 |
| 20260503225931 | 16 | 126 | 1.6 | 1.6 | 0.00 | 0.00 | 0.00 | 41 | 1015.1 |
| 20260503225428 | 16 | 15 | 0.0 | 3.2 | 0.00 | 0.00 | 0.00 | 39 | 1015.3 |
| 20260503224924 | 16 | 90 | 1.6 | 6.4 | 0.00 | 0.00 | 0.00 | 42 | 1015.2 |
| 20260503224421 | 16 | 270 | 0.0 | 1.6 | 0.00 | 0.00 | 0.00 | 38 | 1015.2 |
| 20260503223919 | 16 | 106 | 0.0 | 4.8 | 0.00 | 0.00 | 0.00 | 38 | 1015.4 |
| 20260503223416 | 16 | 145 | 1.6 | 4.8 | 0.00 | 0.00 | 0.00 | 41 | 1015.0 |
| 20260503222916 | 16 | 145 | 1.6 | 4.8 | 0.00 | 0.00 | 0.00 | 39 | 1015.1 |
| 20260503222415 | 16 | 139 | 3.2 | 6.4 | 0.00 | 0.00 | 0.00 | 38 | 1015.2 |
| 20260503221913 | 16 | 150 | 4.8 | 6.4 | 0.00 | 0.00 | 0.00 | 40 | 1015.4 |
| 20260503221411 | 16 | 152 | 0.0 | 4.8 | 0.00 | 0.00 | 0.00 | 38 | 1015.3 |
| 20260503220908 | 17 | 135 | 3.2 | 4.8 | 0.00 | 0.00 | 0.00 | 38 | 1015.1 |
| 20260503220404 | 16 | 152 | 3.2 | 8.0 | 0.00 | 0.00 | 0.00 | 37 | 1015.4 |
| 20260503215901 | 16 | 148 | 4.8 | 16.1 | 0.00 | 0.00 | 0.00 | 39 | 1015.2 |
| 20260503215358 | 17 | 180 | 1.6 | 4.8 | 0.00 | 0.00 | 0.00 | 38 | 1015.5 |
| 20260503214856 | 17 | 129 | 4.8 | 6.4 | 0.00 | 0.00 | 0.00 | 41 | 1015.5 |
| 20260503214353 | 17 | 161 | 3.2 | 6.4 | 0.00 | 0.00 | 0.00 | 40 | 1015.5 |
| 20260503213850 | 17 | 132 | 3.2 | 9.7 | 0.00 | 0.00 | 0.00 | 37 | 1015.4 |
| 20260503213348 | 17 | 173 | 0.0 | 3.2 | 0.00 | 0.00 | 0.00 | 40 | 1015.4 |
| 20260503212844 | 16 | 267 | 4.8 | 6.4 | 0.00 | 0.00 | 0.00 | 36 | 1015.6 |
| 20260503212342 | 17 | 204 | 8.0 | 8.0 | 0.00 | 0.00 | 0.00 | 36 | 1015.4 |
| 20260503211839 | 17 | 195 | 11.3 | 11.3 | 0.00 | 0.00 | 0.00 | 39 | 1015.2 |
| 20260503211336 | 16 | 151 | 4.8 | 14.5 | 0.00 | 0.00 | 0.00 | 38 | 1015.5 |
| 20260503210831 | 16 | 160 | 4.8 | 11.3 | 0.00 | 0.00 | 0.00 | 39 | 1015.7 |
| 20260503210329 | 17 | 158 | 6.4 | 8.0 | 0.00 | 0.00 | 0.00 | 38 | 1015.4 |
| 20260503205824 | 17 | 141 | 3.2 | 8.0 | 0.00 | 0.00 | 0.00 | 39 | 1015.5 |
| 20260503205320 | 17 | 260 | 8.0 | 9.7 | 0.00 | 0.00 | 0.00 | 39 | 1015.5 |